Terminal Aerodrome Forecast
Issued by NWS Mt. Holly, NJ

Home | Current Version | Previous Version | Text Only | Print | Product List | Glossary On
Versions: 1 2 3 4 5 6 7 8 9 10 11 12 13 14 15 16 17 18 19 20 21 22 23 24 25 26 27 28 29 30 31 32 33 34 35 36 37 38 39 40 41 42 43 44 45 46
000
FTAK31 PANC 182335
TAFABE
TAF
PABE 182335Z 1900/1924 03007KT P6SM VCSH FEW030 BKN050 BKN100
     FM190300 03010KT 5SM -SHSN BKN030
     FM190600 03008KT P6SM SCT045 BKN090
     FM190900 03010KT P6SM BKN150=

USA.gov is the U.S. government's official web portal to all federal, state and local government web resources and services.